Location: ?????
(31.8092°N, 35.2590°E)
Time: 15:45:58
(UTC+00:00)

IRS-1A Rocket - Pass Details

Date: 20 June 2021
Orbit: 851 x 932 km, 99.2° (Epoch: 03 August)

Event Time Altitude Azimuth Distance (km) Brightness Sun altitude
Exits shadow 18:00:36 12° 166° (SSE) 2,508 6.2 -13.7°
Maximum altitude 18:06:11 89° 251° (WSW) 925 4.4 -14.6°
Drops below altitude 10° 18:12:01 10° 346° (NNW) 2,598 7.6 -15.6°
Sets 18:14:25 0° 347° (NNW) 3,532 8.4 -16.0°
